Change the Weather History Date:

Wednesday, January 15, 2014

  Actual Average Record
Temperature  
Mean Temperature 42 °F -  
Max Temperature 57 °F 49 °F 73 °F (1950)
Min Temperature 28 °F 29 °F 14 °F (1982)
Degree Days  
Heating Degree Days 22    
Moisture  
Dew Point 32 °F    
Average Humidity 74    
Maximum Humidity 100    
Minimum Humidity 42    
Precipitation  
Precipitation 0.00 in - - ()
Sea Level Pressure  
Sea Level Pressure 29.93 in    
Wind  
Wind Speed 5 mph (West)    
Max Wind Speed 12 mph    
Max Gust Speed 18 mph    
Visibility 10 miles    
Events Rain    
Averages and records for this station are not official NWS values.
T = Trace of Precipitation, MM = Missing Value Source: NWS Daily Summary

Daily Weather History Graph

Daily Weather History Graph

Search for Another Location

Airport or City:

Trip Planner

Search our weather history database for the weather conditions in past years. The results will help you decide how hot, cold, wet, or windy it might be!

Date:

Astronomy

Jan. 15, 2014 Rise Set
Actual Time 7:31 AM EST 5:35 PM EST
Civil Twilight 7:04 AM EST 6:03 PM EST
Nautical Twilight 6:33 AM EST 6:34 PM EST
Astronomical Twilight 6:02 AM EST 7:04 PM EST
Moon 5:30 PM EST (1/15) 6:48 AM EST (1/15)
Length of Visible Light 10h 59m
Length of Day
10h 04m
Full, 100% of the Moon is Illuminated
Jan 15
Full
Jan 15
Full
Jan 24
Last Quarter
Jan 30
New
Feb 6
First Quarter

Hourly Weather History & Observations

Time (EST) Temp. Windchill Dew Point Humidity Pressure Visibility Wind Dir Wind Speed Gust Speed Precip Events Conditions
12:54 AM 33.1 °F 30.0 °F 33.1 °F 100% 29.95 in 6.0 mi SW 3.5 mph - N/A   Clear
1:54 AM 34.0 °F 29.8 °F 34.0 °F 100% 29.95 in 10.0 mi SSW 4.6 mph - N/A   Clear
2:54 AM 32.0 °F 27.5 °F 32.0 °F 100% 29.94 in 9.0 mi South 4.6 mph - N/A   Clear
3:54 AM 32.0 °F - 32.0 °F 100% 29.94 in 10.0 mi Calm Calm - N/A   Clear
4:54 AM 30.0 °F 26.5 °F 30.0 °F 100% 29.93 in 10.0 mi SSW 3.5 mph - N/A   Clear
5:54 AM 30.9 °F - 28.9 °F 92% 29.94 in 9.0 mi Calm Calm - N/A   Clear
6:54 AM 28.0 °F - 27.0 °F 96% 29.95 in 10.0 mi Calm Calm - N/A   Clear
7:54 AM 28.0 °F - 27.0 °F 96% 29.96 in 8.0 mi Calm Calm - N/A   Clear
8:54 AM 36.0 °F 33.3 °F 34.0 °F 93% 29.97 in 10.0 mi SSW 3.5 mph - N/A   Clear
9:54 AM 42.1 °F 38.4 °F 35.1 °F 76% 29.97 in 10.0 mi SW 5.8 mph - N/A   Clear
10:54 AM 48.9 °F - 35.1 °F 59% 29.95 in 10.0 mi WSW 5.8 mph - N/A   Clear
11:54 AM 54.0 °F - 34.0 °F 47% 29.92 in 10.0 mi SW 11.5 mph - N/A   Clear
12:54 PM 55.0 °F - 34.0 °F 45% 29.88 in 10.0 mi WSW 9.2 mph - N/A   Clear
1:54 PM 57.0 °F - 35.1 °F 44% 29.85 in 10.0 mi SW 10.4 mph - N/A   Clear
2:54 PM 57.0 °F - 34.0 °F 42% 29.84 in 10.0 mi West 8.1 mph - N/A   Scattered Clouds
3:54 PM 54.0 °F - 35.1 °F 49% 29.86 in 10.0 mi West 6.9 mph - 0.00 in Rain Light Rain
4:54 PM 50.0 °F - 33.1 °F 52% 29.89 in 10.0 mi NW 10.4 mph 18.4 mph 0.00 in   Overcast
5:54 PM 46.0 °F 41.0 °F 32.0 °F 58% 29.91 in 10.0 mi NNW 10.4 mph - 0.00 in   Overcast
6:54 PM 44.1 °F 40.1 °F 30.9 °F 60% 29.93 in 10.0 mi North 6.9 mph - N/A   Overcast
7:54 PM 43.0 °F 37.7 °F 32.0 °F 65% 29.94 in 10.0 mi North 9.2 mph - N/A   Overcast
8:54 PM 43.0 °F - 32.0 °F 65% 29.94 in 10.0 mi Calm Calm - 0.00 in   Overcast
9:54 PM 39.9 °F 34.5 °F 30.0 °F 68% 29.95 in 10.0 mi North 8.1 mph - N/A   Scattered Clouds
10:54 PM 36.0 °F 33.3 °F 30.9 °F 82% 29.96 in 10.0 mi North 3.5 mph - N/A   Mostly Cloudy
11:54 PM 34.0 °F 28.8 °F 30.0 °F 85% 29.96 in 10.0 mi NNE 5.8 mph - N/A   Clear